This demonstration page uses our WeatherBlox Daily Observations layout. Learn more.

Left ArrowRight Arrow

Hourly Observations for May 10, 2021

Temp ( °F °C ) Dew Point ( °F °C ) Humidity (%) Winds ( mph kmh ) Pressure ( in mb ) Visibility ( mi km ) Precip ( " mm )
12:56 am 00:56 Clear 38 3.3 34 1.1 86 86 WNW 7 11 30.21 1023 10 16 0.00 0.00
1:56 am 01:56 Clear 37 2.8 32 0 82 82 NW 5 7 30.19 1022 10 16 0.00 0.00
2:56 am 02:56 Clear 35 1.7 31 -0.6 85 85 WNW 6 9 30.19 1022 10 16 0.00 0.00
3:56 am 03:56 Clear 33 0.6 30 -1.1 89 89 NW 5 7 30.20 1023 10 16 0.00 0.00
4:56 am 04:56 Clear 33 0.6 29 -1.7 85 85 Calm 30.22 1023 10 16 0.00 0.00
5:56 am 05:56 Clear 32 0 30 -1.1 92 92 NW 5 7 30.22 1023 10 16 0.00 0.00
6:54 am 06:54 Mostly Sunny 34 1 30 -1 87 87 NNW 6 9 30.28 1025 10 16 0.00 0.00
6:56 am 06:56 Mostly Sunny 34 1.1 31 -0.6 89 89 NW 6 9 30.23 1024 10 16 0.00 0.00
7:56 am 07:56 Sunny 40 4.4 36 2.2 86 86 NW 6 9 30.24 1024 10 16 0.00 0.00
8:56 am 08:56 Sunny 44 6.7 36 2.2 73 73 Calm 30.25 1025 10 16 0.00 0.00
9:56 am 09:56 Mostly Cloudy 49 9.4 38 3.3 66 66 N 3 6 30.25 1024 10 16 0.00 0.00
10:56 am 10:56 Mostly Cloudy 51 10.6 36 2.2 56 56 NNE 10 17 30.25 1024 10 16 0.00 0.00
11:56 am 11:56 Mostly Cloudy 53 11.7 36 2.2 52 52 ENE 8 13 30.25 1024 10 16 0.00 0.00
12:56 pm 12:56 Cloudy 54 12.2 37 2.8 53 53 VRB 6 9 30.23 1024 10 16 0.00 0.00
1:56 pm 13:56 Cloudy 57 13.9 38 3.3 49 49 N 6 9 30.21 1023 10 16 0.00 0.00
2:56 pm 14:56 Cloudy 57 13.9 38 3.3 49 49 NNW 8 13 30.20 1023 10 16 0.00 0.00
3:56 pm 15:56 Cloudy 57 13.9 37 2.8 47 47 NNE 9 15 30.19 1022 10 16 0.00 0.00
4:56 pm 16:56 Partly Cloudy with Light Rain 57 13.9 37 2.8 47 47 NNE 13 20 30.18 1022 10 16 0.00 0.00
5:56 pm 17:56 Cloudy 56 13.3 37 2.8 49 49 N 8 13 30.19 1022 10 16 0.00 0.00
6:56 pm 18:56 Cloudy 56 13.3 36 2.2 47 47 NE 6 9 30.19 1022 10 16 0.00 0.00
7:56 pm 19:56 Cloudy 55 12.8 37 2.8 51 51 ENE 3 6 30.19 1023 10 16 0.00 0.00
8:56 pm 20:56 Cloudy 53 11.7 37 2.8 55 55 SW 3 6 30.20 1023 10 16 0.00 0.00
9:56 pm 21:56 Cloudy 53 11.7 38 3.3 57 57 SW 3 6 30.22 1024 10 16 0.00 0.00
10:56 pm 22:56 Cloudy 53 11.7 38 3.3 57 57 WSW 3 6 30.24 1024 10 16 0.00 0.00
11:56 pm 23:56 Cloudy 50 10 41 5 71 71 WNW 7 11 30.24 1024 10 16 0.00 0.00

Powered by AerisWeather